Regional Weather Roundup
Issued by NWS

Home | Current Version | Previous Version | Graphics & Text | Print | Product List | Glossary On
Versions: 1 2 3 4 5 6 7 8 9 10 11 12 13 14 15 16 17 18 19 20 21 22 23 24 25 26 27 28 29 30 31 32 33 34 35 36 37 38 39 40 41 42 43 44 45 46 47 48 49 50
000
ASUS45 KCYS 171210
RWRWY

WYOMING REGIONAL WEATHER ROUNDUP
NATIONAL WEATHER SERVICE CHEYENNE WY
500 AM MST WED DEC 17 2014

NOTE:  "FAIR" INDICATES FEW OR NO CLOUDS BELOW 12,000 FEET
WITH NO SIGNIFICANT WEATHER AND/OR OBSTRUCTIONS TO VISIBILITY.

WYZ001-171300-
YELLOWSTONE NATIONAL PARK

CITY           SKY/WX    TMP DP  RH WIND       PRES   REMARKS
LK YELLOWSTONE   N/A     18  16  92 CALM      29.94S
6HR MIN TEMP:  17; 6HR MAX TEMP:  22; 6HR PCP:  0.02;

W YELLOWSTONE  NOT AVBL

$$
WYZ002>013-054>058-071-098>099-171300-
NORTHERN WYOMING

CITY           SKY/WX    TMP DP  RH WIND       PRES   REMARKS
JACKSON        CLOUDY    25  25 100 CALM      29.96F
CODY           MOCLDY    19  12  73 CALM      29.89S
GREYBULL       CLOUDY    17  15  92 SE5       29.96F WCI  10
6HR MIN TEMP:  15; 6HR MAX TEMP:  19;

WORLAND        MOCLDY     2  -1  88 NW7       29.95S WCI -11
6HR MIN TEMP:   2; 6HR MAX TEMP:  10;

SHERIDAN       FOG       19  16  88 CALM      29.95S VSB 1/2
6HR MIN TEMP:  19; 6HR MAX TEMP:  19;

BUFFALO        FAIR      13  10  88 SW5       29.90F WCI   5
6HR MIN TEMP:  13; 6HR MAX TEMP:  19;

GILLETTE       CLOUDY    16  14  92 S17       29.93S WCI   0
6HR MIN TEMP:  16; 6HR MAX TEMP:  18;

HULETT           N/A    N/A N/A N/A MISG        N/A
NEWCASTLE      CLOUDY    18  18 100 S7        29.98F FOG     WCI   8

$$
WYZ014>020-022>026-101>103-171300-
CENTRAL WYOMING

CITY           SKY/WX    TMP DP  RH WIND       PRES   REMARKS
BIG PINEY      CLOUDY    19  15  84 NE6       29.98S WCI  11
6HR MIN TEMP:  17; 6HR MAX TEMP:  22;

PINEDALE       PTSUNNY   16  16 100 W5        29.98S WCI   9
DUBOIS         CLOUDY    27  19  74 N12       29.89S WCI  16
LANDER         FAIR       2  -1  88 CALM      29.94S
6HR MIN TEMP:   2; 6HR MAX TEMP:  11;

RIVERTON       FOG       15  11  83 SW6       29.95S VSB 1/2 WCI   6
6HR MIN TEMP:  15; 6HR MAX TEMP:  19;

CASPER         FAIR      25  17  72 MISG      29.92S
6HR MIN TEMP:  23; 6HR MAX TEMP:  30;

DOUGLAS        FAIR      10   7  87 CALM      29.94F
6HR MIN TEMP:   7; 6HR MAX TEMP:  11;


$$
WYZ021-027>030-104>119-171300-
SOUTHERN WYOMING

CITY           SKY/WX    TMP DP  RH WIND       PRES   REMARKS
EVANSTON       FAIR      23  17  78 E7        29.95F WCI  15
6HR MIN TEMP:  23; 6HR MAX TEMP:  28;

FORT BRIDGER   FAIR      19  17  93 S7        30.00S WCI  10
ROCK SPRINGS   FAIR      14  10  84 CALM      29.98F
6HR MIN TEMP:   7; 6HR MAX TEMP:  19;

DIXON          FAIR      13  12  92 E3        30.02F
RAWLINS        FAIR      16  12  84 CALM      29.97S
6HR MIN TEMP:  15; 6HR MAX TEMP:  28;

SARATOGA       PTSUNNY   18  14  86 CALM      29.98S
LARAMIE        FAIR      23  19  85 SW13      29.94F WCI  11
6HR MIN TEMP:  13; 6HR MAX TEMP:  23;

CHEYENNE       FAIR      31  23  72 W7        29.94S WCI  24
6HR MIN TEMP:  21; 6HR MAX TEMP:  33;

TORRINGTON     FOG       14  12  92 E5        29.98F VSB 1/4 WCI   6
6HR MIN TEMP:  13; 6HR MAX TEMP:  17;

PINE BLUFFS    FAIR      14  12  92 S7        29.96F WCI   4

$$



USA.gov is the U.S. government's official web portal to all federal, state and local government web resources and services.